Location: Estrella Escondido
(31.8318°N, 104.8079°W)
Time: 03:01:24
(UTC-07:00)

Amateur Radio Satellites - All Passes

Search period start: 23 January 2018 02:31
Search period end: 24 January 2018 02:31
Location: Estrella Escondido, 31.8318°N, 104.8079°W

Satellite Date Start Highest point End Downlink Frequencies (MHz)
Time Altitude Azimuth
MOZHAYETS 4 23 Jan 02:34:24 02:39:01 80° 260° (W) 02:43:40
nSIGHT-1 23 Jan 02:35:25 02:38:32 55° 43° (NE) 02:41:39 .
CUBESAT XI-V 23 Jan 02:44:36 02:48:36 28° 72° (ENE) 02:52:35 437.345
Oscar 19 23 Jan 02:54:47 02:57:39 15° 294° (WNW) 03:00:30 437.125/150
ISS 23 Jan 02:58:30 03:01:45 64° 44° (NE) 03:04:59 437.550
Gurwin Techsat 1B 23 Jan 02:59:24 03:03:05 19° 293° (WNW) 03:06:45 435.225
BEESAT 23 Jan 03:04:21 03:09:04 68° 258° (WSW) 03:13:50 436.000
FALCONSAT 3 23 Jan 03:10:56 03:14:36 78° 344° (NNW) 03:18:17 435.103
AO-7 23 Jan 03:13:58 03:22:14 61° 104° (ESE) 03:30:24 .
SO-50 23 Jan 03:29:27 03:32:54 22° 110° (ESE) 03:36:22 436.795
KKS-1 23 Jan 03:47:14 03:50:11 18° 69° (ENE) 03:53:08 437.445
ITAMSAT 1 23 Jan 04:04:18 04:09:30 71° 285° (WNW) 04:14:40 435.822/435.867
ITUPSAT 1 23 Jan 04:06:24 04:09:03 15° 266° (W) 04:11:42 437.325
CUBESAT XI-V 23 Jan 04:22:15 04:25:53 22° 264° (W) 04:29:30 437.345
DOVE 4 23 Jan 04:44:50 04:49:19 86° 102° (ESE) 04:54:05 437.250
FALCONSAT 3 23 Jan 04:50:20 04:53:53 45° 360° (N) 04:57:26 435.103
M-CUBED/EXP-1 PRIME 23 Jan 04:51:11 04:54:25 57° 105° (ESE) 04:57:36 437.505
AO-7 23 Jan 05:07:50 05:14:20 26° 300° (WNW) 05:20:49 .
SO-50 23 Jan 05:09:19 05:13:09 28° 305° (NW) 05:17:02 436.795
XW-2C 23 Jan 05:11:48 05:14:17 17° 95° (E) 05:16:46 145.795 - 145.815
LilacSat-2 23 Jan 05:12:40 05:15:25 19° 96° (E) 05:18:10 437.200
KKS-1 23 Jan 05:22:31 05:26:26 31° 262° (W) 05:30:23 437.445
STARS 23 Jan 05:30:31 05:34:51 74° 258° (WSW) 05:39:13 437.465
KAITUO 1B 23 Jan 05:38:44 05:41:50 26° 97° (E) 05:44:56 145.475/437.950
XW-2F 23 Jan 05:44:39 05:48:13 44° 99° (E) 05:51:45 145.980 - 146.000
NUDT-PHONESAT 23 Jan 05:44:49 05:48:02 29° 98° (E) 05:51:13 437.300
CUTE-I 23 Jan 05:55:37 06:00:46 49° 100° (E) 06:05:54 437.470
XW-2D 23 Jan 05:56:30 06:00:15 79° 101° (E) 06:03:58 145.860 - 145.880
XW-2B 23 Jan 06:14:15 06:17:57 60° 283° (WNW) 06:21:37 145.730 - 145.750
HO-68 23 Jan 06:17:44 06:24:20 39° 99° (E) 06:30:55 435.675
SEEDS 23 Jan 06:23:38 06:26:43 20° 96° (E) 06:29:47 437.485
FALCONSAT 3 23 Jan 06:29:30 06:33:11 73° 14° (NNE) 06:36:50 435.103
RS-15 23 Jan 06:40:15 06:51:55 53° 109° (ESE) 07:03:33 29.354- 29.394
CUTE 1.7 + AOD 2 23 Jan 06:40:31 06:44:40 62° 101° (E) 06:48:47 437.475
STRAND 1 23 Jan 06:42:56 06:48:00 80° 77° (ENE) 06:53:07 437.568
XW-2C 23 Jan 06:45:26 06:48:21 22° 288° (WNW) 06:51:16 145.795 - 145.815
LilacSat-2 23 Jan 06:46:46 06:49:32 20° 288° (WNW) 06:52:17 437.200
XW-2A 23 Jan 06:59:03 07:00:43 13° 95° (E) 07:02:22 145.665 - 145.685
KAITUO 1B 23 Jan 07:13:32 07:15:31 14° 290° (WNW) 07:17:30 145.475/437.950
FO-29 23 Jan 07:18:50 07:25:49 77° 76° (ENE) 07:31:59 435.910
UWE-3 23 Jan 07:19:31 07:24:06 59° 100° (E) 07:28:35 435.000/436.395/437.385
CUBEBUG 2 23 Jan 07:19:40 07:24:25 73° 283° (WNW) 07:29:04 437.445
NUDT-PHONESAT 23 Jan 07:19:56 07:21:31 12° 290° (WNW) 07:23:06 437.300
JUGNU 23 Jan 07:27:30 07:30:06 13° 164° (SSE) 07:32:42 437.505
AAUSAT CUBESAT 2 23 Jan 07:31:39 07:35:41 56° 100° (E) 07:39:43 437.432
CUTE-I 23 Jan 07:37:01 07:40:21 17° 294° (WNW) 07:43:41 437.470
ZACube-1 23 Jan 07:37:18 07:41:38 45° 99° (E) 07:45:51 437.345
AO-73 23 Jan 07:42:24 07:46:42 44° 99° (E) 07:50:53 145.935
BEESAT 3 23 Jan 07:54:31 07:58:04 32° 112° (ESE) 08:01:38 437.485
SEEDS 23 Jan 07:58:58 08:02:17 24° 288° (WNW) 08:05:36 437.485
HO-68 23 Jan 08:05:38 08:11:51 33° 293° (WNW) 08:18:02 435.675
PCSat 23 Jan 08:07:57 08:12:44 33° 108° (ESE) 08:17:33 145.827
FALCONSAT 3 23 Jan 08:08:51 08:12:06 30° 208° (SSW) 08:15:19 435.103
Oscar 11 23 Jan 08:12:31 08:16:47 61° 100° (E) 08:21:01 .
XW-2A 23 Jan 08:30:44 08:33:19 21° 287° (WNW) 08:35:53 145.665 - 145.685
BEESAT 2 23 Jan 08:49:08 08:52:42 32° 112° (ESE) 08:56:18 435.950
TIGRISAT 23 Jan 08:51:19 08:55:37 56° 75° (ENE) 09:00:03 435.000
RS-15 23 Jan 08:53:05 09:04:34 43° 308° (NW) 09:15:59 29.354- 29.394
UWE-3 23 Jan 08:58:43 08:59:56 11° 294° (WNW) 09:01:09 435.000/436.395/437.385
UNISAT 6 23 Jan 09:07:17 09:11:40 83° 256° (WSW) 09:16:13 437.425
FO-29 23 Jan 09:07:58 09:11:03 13° 266° (W) 09:14:00 435.910
JUGNU 23 Jan 09:14:03 09:18:29 22° 172° (S) 09:22:53 437.505
O/OREOS (USA 219) 23 Jan 09:14:32 09:18:11 24° 65° (ENE) 09:21:49 437.305
YUBILEINY 23 Jan 09:15:18 09:23:21 40° 77° (ENE) 09:31:19 435.215
ZACube-1 23 Jan 09:15:18 09:17:26 13° 293° (WNW) 09:19:32 437.345
DELFI C3 23 Jan 09:17:32 09:21:24 59° 100° (E) 09:25:17 145.870
AO-73 23 Jan 09:20:20 09:22:27 13° 293° (WNW) 09:24:32 145.935
Max Valier Satellite 23 Jan 09:22:39 09:26:08 40° 99° (E) 09:29:35 145.860
BEESAT 3 23 Jan 09:33:02 09:35:37 17° 307° (NW) 09:38:13 437.485
EO-88 23 Jan 09:34:49 09:38:11 35° 99° (E) 09:41:30 145.990 - 145.960
PCSat 23 Jan 09:51:35 09:56:05 27° 303° (WNW) 10:00:38 145.827
PRISM 23 Jan 10:03:49 10:07:53 89° 268° (W) 10:11:57 437.425
AO-85 23 Jan 10:14:31 10:17:57 31° 112° (ESE) 10:21:32 145.980
BEESAT 2 23 Jan 10:27:48 10:30:26 17° 307° (NW) 10:33:08 435.950
POLYITAN 1 23 Jan 10:32:56 10:36:11 22° 71° (ENE) 10:39:28 437.675
LO-87 23 Jan 10:45:10 10:48:25 31° 98° (E) 10:51:39 145.935 - 145.965
NANOSAT C BR1 23 Jan 10:45:30 10:49:01 27° 72° (ENE) 10:52:35 145.865
AIST 2D 23 Jan 10:48:32 10:51:56 49° 260° (W) 10:55:21 435.315
ESTCUBE 1 23 Jan 10:52:07 10:56:05 31° 98° (E) 11:00:01 437.505/2401.250
O/OREOS (USA 219) 23 Jan 10:53:53 10:57:25 23° 258° (WSW) 11:00:57 437.305
QB50P2 23 Jan 11:01:53 11:06:02 58° 75° (ENE) 11:10:12 145.880/145.840
JUGNU 23 Jan 11:02:15 11:06:55 25° 182° (S) 11:11:34 437.505
YUBILEINY 23 Jan 11:12:16 11:19:53 36° 273° (W) 11:27:31 435.215
RS-15 23 Jan 11:16:50 11:21:36 13° 338° (NNW) 11:26:19 29.354- 29.394
DUCHIFAT 1 23 Jan 11:26:46 11:30:56 77° 76° (ENE) 11:35:10 145.980
SRMSAT 23 Jan 11:28:12 11:32:16 19° 168° (SSE) 11:36:21 437.500
EO-79 23 Jan 11:31:42 11:35:52 65° 260° (W) 11:40:06 145.935-145.965
SPROUT 23 Jan 11:50:04 11:53:52 30° 97° (E) 11:57:38 437.525
AO-85 23 Jan 11:55:48 11:58:24 17° 308° (NW) 12:01:06 145.980
POLYITAN 1 23 Jan 12:08:25 12:11:47 23° 264° (W) 12:15:12 437.675
VELOX 1 23 Jan 12:15:16 12:19:09 30° 98° (E) 12:23:01 145.980
BUGSAT 1 23 Jan 12:16:53 12:20:52 59° 75° (ENE) 12:24:56 437.445
LO-87 23 Jan 12:20:09 12:21:27 12° 291° (WNW) 12:22:43 145.935 - 145.965
NANOSAT C BR1 23 Jan 12:21:43 12:24:40 18° 265° (W) 12:27:38 145.865
Oscar 19 23 Jan 12:25:37 12:30:33 46° 73° (ENE) 12:35:30 437.125/150
AO-91 23 Jan 12:25:38 12:28:46 37° 75° (ENE) 12:31:59 145.960
ESTCUBE 1 23 Jan 12:29:30 12:32:36 19° 291° (WNW) 12:35:41 437.505/2401.250
Gurwin Techsat 1B 23 Jan 12:34:40 12:39:37 42° 72° (ENE) 12:44:36 435.225
JUGNU 23 Jan 12:51:29 12:55:19 18° 192° (SSW) 12:59:10 437.505
SRMSAT 23 Jan 13:16:04 13:20:52 25° 178° (S) 13:25:42 437.500
SPROUT 23 Jan 13:26:37 13:29:28 18° 291° (WNW) 13:32:18 437.525
RS-15 23 Jan 13:39:15 13:42:28 11° 18° (NNE) 13:45:40 29.354- 29.394
UKube-1 23 Jan 13:40:08 13:43:51 28° 98° (E) 13:47:33 .
ITAMSAT 1 23 Jan 13:42:50 13:43:37 10° 63° (ENE) 13:44:24 435.822/435.867
SO-50 23 Jan 13:44:07 13:48:49 65° 61° (ENE) 13:53:34 436.795
VELOX 1 23 Jan 13:52:18 13:55:19 18° 291° (WNW) 13:58:20 145.980
DX 1 23 Jan 13:57:51 14:02:13 87° 103° (ESE) 14:06:33 434.975-435.025
Oscar 19 23 Jan 14:06:50 14:10:00 16° 266° (W) 14:13:12 437.125/150
AO-7 23 Jan 14:07:15 14:15:16 54° 68° (ENE) 14:23:21 .
50 SAT 23 Jan 14:15:56 14:18:52 39° 285° (WNW) 14:21:47 437.505
Gurwin Techsat 1B 23 Jan 14:16:02 14:19:39 19° 265° (W) 14:23:17 435.225
NO-84 23 Jan 14:32:41 14:35:29 25° 126° (SE) 14:38:09 435.350 FM
ITUPSAT 1 23 Jan 14:33:03 14:36:06 17° 95° (E) 14:39:08 437.325
MOZHAYETS 4 23 Jan 14:34:34 14:38:46 34° 98° (E) 14:42:55
SRMSAT 23 Jan 15:04:58 15:09:30 22° 188° (S) 15:14:02 437.500
BEESAT 23 Jan 15:09:21 15:13:56 44° 100° (E) 15:18:28 436.000
UKube-1 23 Jan 15:16:36 15:19:37 19° 291° (WNW) 15:22:38 .
ITAMSAT 1 23 Jan 15:17:13 15:22:22 76° 257° (WSW) 15:27:33 435.822/435.867
SO-50 23 Jan 15:27:50 15:28:43 10° 253° (WSW) 15:29:36 436.795
M-CUBED/EXP-1 PRIME 23 Jan 15:31:19 15:35:17 35° 69° (ENE) 15:39:01 437.505
DOVE 4 23 Jan 15:45:46 15:49:52 45° 75° (ENE) 15:53:51 437.250
RS-15 23 Jan 15:49:15 15:59:52 38° 50° (NE) 16:09:56 29.354- 29.394
AO-7 23 Jan 16:01:24 16:08:12 28° 262° (W) 16:15:05 .
ITUPSAT 1 23 Jan 16:09:32 16:14:00 39° 287° (WNW) 16:18:26 437.325
NO-84 23 Jan 16:10:21 16:12:36 18° 317° (NW) 16:14:46 435.350 FM
MOZHAYETS 4 23 Jan 16:12:30 16:15:36 18° 291° (WNW) 16:18:41
CUBESAT XI-V 23 Jan 16:22:26 16:26:58 59° 285° (WNW) 16:31:28 437.345
XW-2F 23 Jan 16:22:43 16:23:47 11° 69° (ENE) 16:24:50 145.980 - 146.000
XW-2D 23 Jan 16:33:28 16:36:06 18° 71° (ENE) 16:38:44 145.860 - 145.880
HO-68 23 Jan 16:43:16 16:47:39 18° 61° (ENE) 16:52:02 435.675
BEESAT 23 Jan 16:48:31 16:51:16 15° 293° (WNW) 16:54:00 436.000
XW-2B 23 Jan 16:50:27 16:53:45 28° 73° (ENE) 16:57:03 145.730 - 145.750
SRMSAT 23 Jan 16:55:28 16:58:03 13° 197° (SSW) 17:00:39 437.500
PCSat 23 Jan 17:03:21 17:04:30 11° 49° (NE) 17:05:38 145.827
M-CUBED/EXP-1 PRIME 23 Jan 17:06:59 17:09:35 16° 259° (W) 17:12:08 437.505
CUTE-I 23 Jan 17:12:29 17:17:35 49° 73° (ENE) 17:22:41 437.470
KKS-1 23 Jan 17:17:31 17:21:58 69° 102° (ESE) 17:26:25 437.445
XW-2C 23 Jan 17:20:24 17:24:13 79° 77° (ENE) 17:28:03 145.795 - 145.815
LilacSat-2 23 Jan 17:22:14 17:26:05 88° 260° (W) 17:29:57 437.200
STARS 23 Jan 17:24:54 17:28:44 28° 98° (E) 17:32:33 437.465
DOVE 4 23 Jan 17:27:15 17:27:42 10° 267° (W) 17:28:09 437.250
CUTE 1.7 + AOD 2 23 Jan 17:28:35 17:31:56 23° 71° (ENE) 17:35:18 437.475
nSIGHT-1 23 Jan 17:33:31 17:35:33 16° 127° (SE) 17:37:34 .
KAITUO 1B 23 Jan 17:46:21 17:50:06 66° 260° (W) 17:53:49 145.475/437.950
NUDT-PHONESAT 23 Jan 17:51:28 17:55:09 60° 260° (W) 17:58:50 437.300
BEESAT 3 23 Jan 17:52:23 17:56:12 57° 60° (ENE) 17:59:58 437.485
XW-2F 23 Jan 17:53:55 17:57:28 37° 262° (W) 18:01:01 145.980 - 146.000
ISS 23 Jan 17:59:11 18:01:40 20° 128° (SE) 18:04:10 437.550
RS-15 23 Jan 18:01:32 18:12:33 56° 250° (WSW) 18:23:06 29.354- 29.394
XW-2D 23 Jan 18:07:02 18:10:04 22° 264° (W) 18:13:05 145.860 - 145.880
UWE-3 23 Jan 18:11:42 18:15:19 25° 71° (ENE) 18:19:02 435.000/436.395/437.385
CUBEBUG 2 23 Jan 18:12:24 18:16:36 48° 74° (ENE) 18:20:57 437.445
AAUSAT CUBESAT 2 23 Jan 18:17:27 18:20:24 19° 71° (ENE) 18:23:21 437.432
XW-2B 23 Jan 18:25:51 18:27:54 14° 266° (W) 18:29:56 145.730 - 145.750
HO-68 23 Jan 18:27:26 18:34:34 74° 256° (WSW) 18:41:45 435.675
ZACube-1 23 Jan 18:28:36 18:31:49 20° 70° (ENE) 18:35:04 437.345
AO-73 23 Jan 18:33:23 18:36:33 19° 70° (ENE) 18:39:46 145.935
PCSat 23 Jan 18:43:10 18:48:37 87° 66° (ENE) 18:54:02 145.827
SEEDS 23 Jan 18:44:20 18:48:32 69° 259° (W) 18:52:43 437.485
BEESAT 2 23 Jan 18:48:07 18:52:04 60° 61° (ENE) 18:55:55 435.950
AO-85 23 Jan 18:51:05 18:52:55 12° 49° (NE) 18:54:46 145.980
CUTE-I 23 Jan 18:54:41 18:57:48 16° 266° (W) 19:00:56 437.470
XW-2A 23 Jan 18:55:43 18:58:59 44° 76° (ENE) 19:02:16 145.665 - 145.685
STRAND 1 23 Jan 18:58:33 19:03:24 41° 99° (E) 19:08:13 437.568
STARS 23 Jan 19:01:38 19:04:49 20° 291° (WNW) 19:08:01 437.465
Oscar 11 23 Jan 19:02:40 19:06:12 25° 71° (ENE) 19:09:44 .
CUTE 1.7 + AOD 2 23 Jan 19:04:17 19:07:37 22° 264° (W) 19:10:58 437.475
nSIGHT-1 23 Jan 19:08:41 19:11:30 29° 320° (NW) 19:14:19 .
ISS 23 Jan 19:35:15 19:38:01 25° 322° (NW) 19:40:48 437.550
UWE-3 23 Jan 19:48:11 19:51:39 22° 265° (W) 19:55:12 435.000/436.395/437.385
AAUSAT CUBESAT 2 23 Jan 19:52:14 19:55:38 25° 264° (W) 19:59:03 437.432
CUBEBUG 2 23 Jan 19:52:17 19:53:28 11° 269° (W) 19:54:39 437.445
DELFI C3 23 Jan 19:58:48 20:01:16 16° 70° (ENE) 20:03:45 145.870
ZACube-1 23 Jan 20:03:57 20:07:49 29° 263° (W) 20:11:46 437.345
AO-73 23 Jan 20:08:36 20:12:30 30° 263° (W) 20:16:28 145.935
FO-29 23 Jan 20:18:20 20:23:32 79° 284° (WNW) 20:28:59 435.910
AO-85 23 Jan 20:28:45 20:33:52 87° 244° (WSW) 20:39:13 145.980
STRAND 1 23 Jan 20:38:40 20:42:13 19° 292° (WNW) 20:45:45 437.568
Oscar 11 23 Jan 20:38:53 20:42:13 21° 264° (W) 20:45:34 .
TIGRISAT 23 Jan 20:48:32 20:51:50 19° 95° (E) 20:55:04 435.000
UNISAT 6 23 Jan 21:04:00 21:08:11 31° 97° (E) 21:12:17 437.425
Max Valier Satellite 23 Jan 21:29:31 21:33:04 42° 261° (W) 21:36:38 145.860
DELFI C3 23 Jan 21:32:29 21:35:45 26° 263° (W) 21:39:03 145.870
EO-88 23 Jan 21:40:12 21:43:44 49° 260° (W) 21:47:17 145.990 - 145.960
ESTCUBE 1 23 Jan 21:47:41 21:50:31 17° 68° (ENE) 21:53:21 437.505/2401.250
PRISM 23 Jan 21:50:42 21:53:28 17° 96° (E) 21:56:13 437.425
YUBILEINY 23 Jan 22:09:22 22:17:52 55° 90° (E) 22:26:20 435.215
AIST 2D 23 Jan 22:18:58 22:21:01 15° 95° (E) 22:23:05 435.315
TIGRISAT 23 Jan 22:24:17 22:28:30 33° 288° (WNW) 22:32:39 435.000
SPROUT 23 Jan 22:40:07 22:41:58 13° 68° (ENE) 22:43:49 437.525
UNISAT 6 23 Jan 22:41:11 22:44:36 20° 291° (WNW) 22:48:00 437.425
NO-84 23 Jan 22:46:05 22:48:01 16° 43° (NE) 22:49:59 435.350 FM
LO-87 23 Jan 22:48:34 22:52:04 61° 260° (W) 22:55:36 145.935 - 145.965
QB50P2 23 Jan 22:53:02 22:55:18 14° 94° (E) 22:57:34 145.880/145.840
VELOX 1 23 Jan 23:08:47 23:11:18 15° 68° (ENE) 23:13:50 145.980
DUCHIFAT 1 23 Jan 23:16:29 23:19:21 18° 95° (E) 23:22:12 145.980
O/OREOS (USA 219) 23 Jan 23:21:01 23:25:30 72° 108° (ESE) 23:29:59 437.305
EO-79 23 Jan 23:21:24 23:25:06 28° 97° (E) 23:28:47 145.935-145.965
ESTCUBE 1 23 Jan 23:22:49 23:26:58 36° 261° (W) 23:31:08 437.505/2401.250
PRISM 23 Jan 23:25:13 23:28:39 26° 288° (WNW) 23:32:06 437.425
AIST 2D 23 Jan 23:51:28 23:54:04 20° 287° (WNW) 23:56:40 435.315
POLYITAN 1 23 Jan 23:56:52 00:01:10 81° 102° (ESE) 00:05:26 437.675
BUGSAT 1 24 Jan 00:05:03 00:07:01 13° 94° (E) 00:08:58 437.445
YUBILEINY 24 Jan 00:07:50 00:14:56 27° 286° (WNW) 00:22:04 435.215
NANOSAT C BR1 24 Jan 00:09:09 00:13:25 81° 283° (WNW) 00:17:40 145.865
SPROUT 24 Jan 00:13:25 00:17:25 41° 261° (W) 00:21:27 437.525
AO-91 24 Jan 00:19:23 00:22:30 17° 96° (E) 00:25:43 145.960
NO-84 24 Jan 00:22:47 00:25:05 21° 234° (SW) 00:27:30 435.350 FM
QB50P2 24 Jan 00:27:13 00:31:08 36° 287° (WNW) 00:35:02 145.880/145.840
UKube-1 24 Jan 00:31:12 00:33:16 13° 67° (ENE) 00:35:19 .
50 SAT 24 Jan 00:35:57 00:38:00 17° 72° (ENE) 00:40:03 437.505
Oscar 19 24 Jan 00:42:45 00:46:52 24° 96° (E) 00:50:57 437.125/150
VELOX 1 24 Jan 00:43:20 00:47:23 37° 261° (W) 00:51:27 145.980
DX 1 24 Jan 00:48:24 00:52:24 38° 73° (ENE) 00:56:24 434.975-435.025
DUCHIFAT 1 24 Jan 00:51:18 00:54:58 28° 288° (WNW) 00:58:36 145.980
Gurwin Techsat 1B 24 Jan 00:56:17 01:00:35 25° 96° (E) 01:04:54 435.225
EO-79 24 Jan 00:57:39 01:00:36 18° 290° (WNW) 01:03:33 145.935-145.965
FALCONSAT 3 24 Jan 00:58:22 01:01:25 25° 150° (SSE) 01:04:27 435.103
MOZHAYETS 4 24 Jan 01:32:11 01:35:27 19° 69° (ENE) 01:38:43
ITUPSAT 1 24 Jan 01:36:35 01:38:13 12° 65° (ENE) 01:39:52 437.325
BUGSAT 1 24 Jan 01:38:30 01:42:27 38° 286° (WNW) 01:46:23 437.445
nSIGHT-1 24 Jan 01:38:58 01:41:36 23° 38° (NE) 01:44:12 .
AO-91 24 Jan 01:54:23 01:58:54 44° 285° (WNW) 02:03:47 145.960
UKube-1 24 Jan 02:04:49 02:08:51 40° 260° (W) 02:12:55 .
ISS 24 Jan 02:06:29 02:09:25 29° 39° (NE) 02:12:20 437.550
50 SAT 24 Jan 02:07:54 02:09:32 14° 264° (W) 02:11:11 437.505
BEESAT 24 Jan 02:11:02 02:15:08 29° 71° (ENE) 02:19:15 436.000
AO-7 24 Jan 02:15:42 02:21:57 23° 96° (E) 02:28:08 .
Oscar 19 24 Jan 02:21:38 02:26:07 31° 290° (WNW) 02:30:34 437.125/150
DX 1 24 Jan 02:26:29 02:28:39 14° 266° (W) 02:30:50 434.975-435.025
